Regional Weather Roundup
Issued by NWS Goodland, KS

Home | Current Version | Previous Version | Graphics & Text | Print | Product List | Glossary On
Versions: 1 2 3 4 5 6 7 8 9 10 11 12 13 14 15 16 17 18 19 20 21 22 23 24 25 26 27 28 29 30 31 32 33 34 35 36 37 38 39 40 41 42 43 44 45 46 47 48 49 50
000
ASUS43 KGLD 161859
RWRGLD

GOODLAND FORECAST AREA HOURLY WEATHER ROUNDUP
NATIONAL WEATHER SERVICE GOODLAND KS
100 PM MDT WED APR 16 2014

...OFFICIAL OBSERVATIONS...

CITY           SKY/WX    TMP DP  RH WIND       PRES   REMARKS
GOODLAND KS    MOSUNNY   59  27  29 N31G44    29.87S
HILL CITY KS   MOSUNNY   65  33  30 N28G37    29.82R
IMPERIAL NEB   PTSUNNY   55  34  45 N23G35    29.89R
MCCOOK NEB     PTSUNNY   58  35  42 N28G39    29.84R
AKRON CO       PTSUNNY   50  26  39 N26G40    29.92R
BURLINGTON CO  SUNNY     56  25  30 N28G40    29.88F
LIMON CO       SUNNY     51  23  33 N28G36    29.91R
$$

...UNOFFICIAL OBSERVATIONS...

CITY           SKY/WX    TMP DP  RH WIND       PRES   REMARKS
COLBY KS       MOSUNNY   61  34  36 NW26G43   29.84S
GOVE KS          N/A     62  32  32 NW20G32     N/A
LENORA KS        N/A     60  32  34 W23         N/A
LEOTI KS         N/A     62  32  32 NW18        N/A
NORTON KS      SUNNY     57  34  41 NW28G38   29.79R
SHARON SPRINGS   N/A     59  30  33 N28G40      N/A
WAKEENEY KS      N/A     66  32  28 MISG        N/A
$$



USA.gov is the U.S. government's official web portal to all federal, state and local government web resources and services.